|
NORAD ID: 28080 Int'l Code: 2003-048D
Perigee: 833.9 km
Apogee: 836.8 km
Inclination: 98.7 °
Period: 101.5 minutes
Semi major axis: 7206 km
Launch date: October 18, 2003
Source: United States (US)
Note: This is SATELLITE DEBRIS
Two Line Element Set (TLE):
1 28080U 03048D 13169.17795056 .00001270 00000-0 62771-3 0 2701
2 28080 098.6633 209.6195 0002018 286.6648 104.7032 14.19146371497394
Source:
NASA's NSSDC Master Catalog entry for DMSP 5D-3 F16 DEB
|